Year,Month,Day,Hour,Minute,Value (Times are PST for temperature in C)
2019,08,14,00,00,13.90
2019,08,14,00,01,13.90
2019,08,14,00,02,13.90
2019,08,14,00,03,14.00
2019,08,14,00,04,14.00
2019,08,14,00,05,14.00
2019,08,14,00,06,14.00
2019,08,14,00,07,14.10
2019,08,14,00,08,14.30
2019,08,14,00,09,14.50
2019,08,14,00,10,14.70
2019,08,14,00,11,14.80
2019,08,14,00,12,14.90
2019,08,14,00,13,14.90
2019,08,14,00,14,14.90
2019,08,14,00,15,14.80
2019,08,14,00,16,14.80
2019,08,14,00,17,14.70
2019,08,14,00,18,14.70
2019,08,14,00,19,14.60
2019,08,14,00,20,14.60
2019,08,14,00,21,14.60
2019,08,14,00,22,14.50
2019,08,14,00,23,14.50
2019,08,14,00,24,14.40
2019,08,14,00,25,14.30
2019,08,14,00,26,14.30
2019,08,14,00,27,14.20
2019,08,14,00,28,14.20
2019,08,14,00,29,14.20
2019,08,14,00,30,14.20
2019,08,14,00,31,14.20
2019,08,14,00,32,14.10
2019,08,14,00,33,14.00
2019,08,14,00,34,14.00
2019,08,14,00,35,13.90
2019,08,14,00,36,13.90
2019,08,14,00,37,13.90
2019,08,14,00,38,13.90
2019,08,14,00,39,13.90
2019,08,14,00,40,13.80
2019,08,14,00,41,13.80
2019,08,14,00,42,13.80
2019,08,14,00,43,13.80
2019,08,14,00,44,13.80
2019,08,14,00,45,13.80
2019,08,14,00,46,13.70
2019,08,14,00,47,13.70
2019,08,14,00,48,13.70
2019,08,14,00,49,13.70
2019,08,14,00,50,13.60
2019,08,14,00,51,13.70
2019,08,14,00,52,13.70
2019,08,14,00,53,13.80
2019,08,14,00,54,13.90
2019,08,14,00,55,13.90
2019,08,14,00,56,14.00
2019,08,14,00,57,14.10
2019,08,14,00,58,14.10
2019,08,14,00,59,14.10
2019,08,14,01,00,14.20
2019,08,14,01,01,14.20
2019,08,14,01,02,14.20
2019,08,14,01,03,14.30
2019,08,14,01,04,14.40
2019,08,14,01,05,14.40
2019,08,14,01,06,14.50
2019,08,14,01,07,14.60
2019,08,14,01,08,14.70
2019,08,14,01,09,14.80
2019,08,14,01,10,14.90
2019,08,14,01,11,15.00
2019,08,14,01,12,15.00
2019,08,14,01,13,15.10
2019,08,14,01,14,15.20
2019,08,14,01,15,15.30
2019,08,14,01,16,15.30
2019,08,14,01,17,15.30
2019,08,14,01,18,15.20
2019,08,14,01,19,15.20
2019,08,14,01,20,15.20
2019,08,14,01,21,15.20
2019,08,14,01,22,15.20
2019,08,14,01,23,15.20
2019,08,14,01,24,15.30
2019,08,14,01,25,15.30
2019,08,14,01,26,15.40
2019,08,14,01,27,15.40
2019,08,14,01,28,15.40
2019,08,14,01,29,15.50
2019,08,14,01,30,15.40
2019,08,14,01,31,15.40
2019,08,14,01,32,15.40
2019,08,14,01,33,15.50
2019,08,14,01,34,15.50
2019,08,14,01,35,15.50
2019,08,14,01,36,15.60
2019,08,14,01,37,15.70
2019,08,14,01,38,15.80
2019,08,14,01,39,15.90
2019,08,14,01,40,16.00
2019,08,14,01,41,16.10
2019,08,14,01,42,16.20
2019,08,14,01,43,16.30
2019,08,14,01,44,16.30
2019,08,14,01,45,16.30
2019,08,14,01,46,16.20
2019,08,14,01,47,16.00
2019,08,14,01,48,15.80
2019,08,14,01,49,15.50
2019,08,14,01,50,15.20
2019,08,14,01,51,15.00
2019,08,14,01,52,14.80
2019,08,14,01,53,14.60
2019,08,14,01,54,14.60
2019,08,14,01,55,14.50
2019,08,14,01,56,14.50
2019,08,14,01,57,14.40
2019,08,14,01,58,14.40
2019,08,14,01,59,14.40
2019,08,14,02,00,14.50
2019,08,14,02,01,14.60
2019,08,14,02,02,14.60
2019,08,14,02,03,14.50
2019,08,14,02,04,14.50
2019,08,14,02,05,14.50
2019,08,14,02,06,14.40
2019,08,14,02,07,14.40
2019,08,14,02,08,14.50
2019,08,14,02,09,14.50
2019,08,14,02,10,14.60
2019,08,14,02,11,14.70
2019,08,14,02,12,14.90
2019,08,14,02,13,15.10
2019,08,14,02,14,15.20
2019,08,14,02,15,15.20
2019,08,14,02,16,15.30
2019,08,14,02,17,15.30
2019,08,14,02,18,15.40
2019,08,14,02,19,15.40
2019,08,14,02,20,15.40
2019,08,14,02,21,15.40
2019,08,14,02,22,15.40
2019,08,14,02,23,15.50
2019,08,14,02,24,15.50
2019,08,14,02,25,15.60
2019,08,14,02,26,15.60
2019,08,14,02,27,15.60
2019,08,14,02,28,15.60
2019,08,14,02,29,15.60
2019,08,14,02,30,15.70
2019,08,14,02,31,15.70
2019,08,14,02,32,15.70
2019,08,14,02,33,15.60
2019,08,14,02,34,15.60
2019,08,14,02,35,15.70
2019,08,14,02,36,15.70
2019,08,14,02,37,15.80
2019,08,14,02,38,16.00
2019,08,14,02,39,16.30
2019,08,14,02,40,16.50
2019,08,14,02,41,16.70
2019,08,14,02,42,16.80
2019,08,14,02,43,16.80
2019,08,14,02,44,16.90
2019,08,14,02,45,17.00
2019,08,14,02,46,17.00
2019,08,14,02,47,17.10
2019,08,14,02,48,17.10
2019,08,14,02,49,17.10
2019,08,14,02,50,17.30
2019,08,14,02,51,17.30
2019,08,14,02,52,17.30
2019,08,14,02,53,17.30
2019,08,14,02,54,17.30
2019,08,14,02,55,17.30
2019,08,14,02,56,17.30
2019,08,14,02,57,17.30
2019,08,14,02,58,17.40
2019,08,14,02,59,17.30
2019,08,14,03,00,17.30
2019,08,14,03,01,17.30
2019,08,14,03,02,17.20
2019,08,14,03,03,17.20
2019,08,14,03,04,17.10
2019,08,14,03,05,17.10
2019,08,14,03,06,17.00
2019,08,14,03,07,17.00
2019,08,14,03,08,17.00
2019,08,14,03,09,16.90
2019,08,14,03,10,16.90
2019,08,14,03,11,17.00
2019,08,14,03,12,17.10
2019,08,14,03,13,17.10
2019,08,14,03,14,17.20
2019,08,14,03,15,17.30
2019,08,14,03,16,17.30
2019,08,14,03,17,17.30
2019,08,14,03,18,17.30
2019,08,14,03,19,17.40
2019,08,14,03,20,17.40
2019,08,14,03,21,17.40
2019,08,14,03,22,17.40
2019,08,14,03,23,17.40
2019,08,14,03,24,17.40
2019,08,14,03,25,17.40
2019,08,14,03,26,17.40
2019,08,14,03,27,17.30
2019,08,14,03,28,17.30
2019,08,14,03,29,17.30
2019,08,14,03,30,17.30
2019,08,14,03,31,17.30
2019,08,14,03,32,17.30
2019,08,14,03,33,17.30
2019,08,14,03,34,17.30
2019,08,14,03,35,17.20
2019,08,14,03,36,17.20
2019,08,14,03,37,17.20
2019,08,14,03,38,17.20
2019,08,14,03,39,17.10
2019,08,14,03,40,17.10
2019,08,14,03,41,17.10
2019,08,14,03,42,17.10
2019,08,14,03,43,17.10
2019,08,14,03,44,17.10
2019,08,14,03,45,17.10
2019,08,14,03,46,17.10
2019,08,14,03,47,17.10
2019,08,14,03,48,17.10
2019,08,14,03,49,17.10
2019,08,14,03,50,17.10
2019,08,14,03,51,17.10
2019,08,14,03,52,17.00
2019,08,14,03,53,17.00
2019,08,14,03,54,17.00
2019,08,14,03,55,17.00
2019,08,14,03,56,16.90
2019,08,14,03,57,16.90
2019,08,14,03,58,16.90
2019,08,14,03,59,16.80
2019,08,14,04,00,16.80
2019,08,14,04,01,16.70
2019,08,14,04,02,16.60
2019,08,14,04,03,16.50
2019,08,14,04,04,16.40
2019,08,14,04,05,16.30
2019,08,14,04,06,16.20
2019,08,14,04,07,16.20
2019,08,14,04,08,16.10
2019,08,14,04,09,16.10
2019,08,14,04,10,16.00
2019,08,14,04,11,16.00
2019,08,14,04,12,16.00
2019,08,14,04,13,16.00
2019,08,14,04,14,15.90
2019,08,14,04,15,15.90
2019,08,14,04,16,15.90
2019,08,14,04,17,15.90
2019,08,14,04,18,15.90
2019,08,14,04,19,15.90
2019,08,14,04,20,15.90
2019,08,14,04,21,15.90
2019,08,14,04,22,15.90
2019,08,14,04,23,15.90
2019,08,14,04,24,15.90
2019,08,14,04,25,15.80
2019,08,14,04,26,15.80
2019,08,14,04,27,15.80
2019,08,14,04,28,15.80
2019,08,14,04,29,15.80
2019,08,14,04,30,15.70
2019,08,14,04,31,15.70
2019,08,14,04,32,15.70
2019,08,14,04,33,15.70
2019,08,14,04,34,15.70
2019,08,14,04,35,15.70
2019,08,14,04,36,15.60
2019,08,14,04,37,15.60
2019,08,14,04,38,15.60
2019,08,14,04,39,15.60
2019,08,14,04,40,15.60
2019,08,14,04,41,15.60
2019,08,14,04,42,15.60
2019,08,14,04,43,15.60
2019,08,14,04,44,15.60
2019,08,14,04,45,15.60
2019,08,14,04,46,15.60
2019,08,14,04,47,15.60
2019,08,14,04,48,15.60
2019,08,14,04,49,15.70
2019,08,14,04,50,15.60
2019,08,14,04,51,15.60
2019,08,14,04,52,15.60
2019,08,14,04,53,15.60
2019,08,14,04,54,15.60
2019,08,14,04,55,15.60
2019,08,14,04,56,15.60
2019,08,14,04,57,15.50
2019,08,14,04,58,15.50
2019,08,14,04,59,15.50
2019,08,14,05,00,15.50
2019,08,14,05,01,15.50
2019,08,14,05,02,15.50
2019,08,14,05,03,15.40
2019,08,14,05,04,15.40
2019,08,14,05,05,15.40
2019,08,14,05,06,15.40
2019,08,14,05,07,15.40
2019,08,14,05,08,15.40
2019,08,14,05,09,15.40
2019,08,14,05,10,15.50
2019,08,14,05,11,15.50
2019,08,14,05,12,15.60
2019,08,14,05,13,15.70
2019,08,14,05,14,15.80
2019,08,14,05,15,15.80
2019,08,14,05,16,15.90
2019,08,14,05,17,15.90
2019,08,14,05,18,16.00
2019,08,14,05,19,16.00
2019,08,14,05,20,16.10
2019,08,14,05,21,16.20
2019,08,14,05,22,16.20
2019,08,14,05,23,16.30
2019,08,14,05,24,16.40
2019,08,14,05,25,16.50
2019,08,14,05,26,16.50
2019,08,14,05,27,16.50
2019,08,14,05,28,16.50
2019,08,14,05,29,16.70
2019,08,14,05,30,16.70
2019,08,14,05,31,16.70
2019,08,14,05,32,16.70
2019,08,14,05,33,16.70
2019,08,14,05,34,16.70
2019,08,14,05,35,16.60
2019,08,14,05,36,16.60
2019,08,14,05,37,16.60
2019,08,14,05,38,16.60
2019,08,14,05,39,16.60
2019,08,14,05,40,16.60
2019,08,14,05,41,16.60
2019,08,14,05,42,16.50
2019,08,14,05,43,16.50
2019,08,14,05,44,16.50
2019,08,14,05,45,16.50
2019,08,14,05,46,16.50
2019,08,14,05,47,16.50
2019,08,14,05,48,16.50
2019,08,14,05,49,16.40
2019,08,14,05,50,16.40
2019,08,14,05,51,16.40
2019,08,14,05,52,16.40
2019,08,14,05,53,16.40
2019,08,14,05,54,16.30
2019,08,14,05,55,16.10
2019,08,14,05,56,15.90
2019,08,14,05,57,15.80
2019,08,14,05,58,15.60
2019,08,14,05,59,15.50
2019,08,14,06,00,15.40
2019,08,14,06,01,15.20
2019,08,14,06,02,14.90
2019,08,14,06,03,14.70
2019,08,14,06,04,14.50
2019,08,14,06,05,14.30
2019,08,14,06,06,14.20
2019,08,14,06,07,14.20
2019,08,14,06,08,14.10
2019,08,14,06,09,14.10
2019,08,14,06,10,14.10
2019,08,14,06,11,14.10
2019,08,14,06,12,14.10
2019,08,14,06,13,14.10
2019,08,14,06,14,14.10
2019,08,14,06,15,14.20
2019,08,14,06,16,14.20
2019,08,14,06,17,14.30
2019,08,14,06,18,14.30
2019,08,14,06,19,14.40
2019,08,14,06,20,14.40
2019,08,14,06,21,14.40
2019,08,14,06,22,14.50
2019,08,14,06,23,14.50
2019,08,14,06,24,14.50
2019,08,14,06,25,14.50
2019,08,14,06,26,14.50
2019,08,14,06,27,14.40
2019,08,14,06,28,14.50
2019,08,14,06,29,14.50
2019,08,14,06,30,14.50
2019,08,14,06,31,14.60
2019,08,14,06,32,14.60
2019,08,14,06,33,14.60
2019,08,14,06,34,14.60
2019,08,14,06,35,14.70
2019,08,14,06,36,14.70
2019,08,14,06,37,14.70
2019,08,14,06,38,14.70
2019,08,14,06,39,14.70
2019,08,14,06,40,14.70
2019,08,14,06,41,14.80
2019,08,14,06,42,14.80
2019,08,14,06,43,14.80
2019,08,14,06,44,14.80
2019,08,14,06,45,14.80
2019,08,14,06,46,14.80
2019,08,14,06,47,14.80
2019,08,14,06,48,14.80
2019,08,14,06,49,14.80
2019,08,14,06,50,14.80
2019,08,14,06,51,14.70
2019,08,14,06,52,14.60
2019,08,14,06,53,14.60
2019,08,14,06,54,14.70
2019,08,14,06,55,14.70
2019,08,14,06,56,14.70
2019,08,14,06,57,14.70
2019,08,14,06,58,14.80
2019,08,14,06,59,14.90
2019,08,14,07,00,15.00
2019,08,14,07,01,15.20
2019,08,14,07,02,15.30
2019,08,14,07,03,15.30
2019,08,14,07,04,15.30
2019,08,14,07,05,15.30
2019,08,14,07,06,15.20
2019,08,14,07,07,15.20
2019,08,14,07,08,15.10
2019,08,14,07,09,15.10
2019,08,14,07,10,15.10
2019,08,14,07,11,15.10
2019,08,14,07,12,15.10
2019,08,14,07,13,15.00
2019,08,14,07,14,15.00
2019,08,14,07,15,14.90
2019,08,14,07,16,14.90
2019,08,14,07,17,14.80
2019,08,14,07,18,14.90
2019,08,14,07,19,15.00
2019,08,14,07,20,15.10
2019,08,14,07,21,15.10
2019,08,14,07,22,15.10
2019,08,14,07,23,15.20
2019,08,14,07,24,15.10
2019,08,14,07,25,15.00
2019,08,14,07,26,14.80
2019,08,14,07,27,14.70
2019,08,14,07,28,14.50
2019,08,14,07,29,14.40
2019,08,14,07,30,14.30
2019,08,14,07,31,14.30
2019,08,14,07,32,14.20
2019,08,14,07,33,14.10
2019,08,14,07,34,14.10
2019,08,14,07,35,14.00
2019,08,14,07,36,14.00
2019,08,14,07,37,14.00
2019,08,14,07,38,14.00
2019,08,14,07,39,14.00
2019,08,14,07,40,14.20
2019,08,14,07,41,14.30
2019,08,14,07,42,14.40
2019,08,14,07,43,14.50
2019,08,14,07,44,14.60
2019,08,14,07,45,14.70
2019,08,14,07,46,14.80
2019,08,14,07,47,14.90
2019,08,14,07,48,15.00
2019,08,14,07,49,15.10
2019,08,14,07,50,15.10
2019,08,14,07,51,15.10
2019,08,14,07,52,15.10
2019,08,14,07,53,15.10
2019,08,14,07,54,15.10
2019,08,14,07,55,15.30
2019,08,14,07,56,15.60
2019,08,14,07,57,15.70
2019,08,14,07,58,15.70
2019,08,14,07,59,15.80
2019,08,14,08,00,15.80
2019,08,14,08,01,15.90
2019,08,14,08,02,15.90
2019,08,14,08,03,16.00
2019,08,14,08,04,16.10
2019,08,14,08,05,16.10
2019,08,14,08,06,16.20
2019,08,14,08,07,16.30
2019,08,14,08,08,16.40
2019,08,14,08,09,16.40
2019,08,14,08,10,16.50
2019,08,14,08,11,16.60
2019,08,14,08,12,16.70
2019,08,14,08,13,16.80
2019,08,14,08,14,16.80
2019,08,14,08,15,16.90
2019,08,14,08,16,17.00
2019,08,14,08,17,17.10
2019,08,14,08,18,17.10
2019,08,14,08,19,17.20
2019,08,14,08,20,17.30
2019,08,14,08,21,17.30
2019,08,14,08,22,17.40
2019,08,14,08,23,17.40
2019,08,14,08,24,17.50
2019,08,14,08,25,17.50
2019,08,14,08,26,17.60
2019,08,14,08,27,17.60
2019,08,14,08,28,17.70
2019,08,14,08,29,17.70
2019,08,14,08,30,17.70
2019,08,14,08,31,17.70
2019,08,14,08,32,17.80
2019,08,14,08,33,17.80
2019,08,14,08,34,17.80
2019,08,14,08,35,17.90
2019,08,14,08,36,17.90
2019,08,14,08,37,17.90
2019,08,14,08,38,18.00
2019,08,14,08,39,18.00
2019,08,14,08,40,18.00
2019,08,14,08,41,18.00
2019,08,14,08,42,18.00
2019,08,14,08,43,18.10
2019,08,14,08,44,18.20
2019,08,14,08,45,18.30
2019,08,14,08,46,18.40
2019,08,14,08,47,18.40
2019,08,14,08,48,18.40
2019,08,14,08,49,18.50
2019,08,14,08,50,18.50
2019,08,14,08,51,18.60
2019,08,14,08,52,18.60
2019,08,14,08,53,18.70
2019,08,14,08,54,18.80
2019,08,14,08,55,18.80
2019,08,14,08,56,18.90
2019,08,14,08,57,18.90
2019,08,14,08,58,18.90
2019,08,14,08,59,18.90
2019,08,14,09,00,18.80
2019,08,14,09,01,18.70
2019,08,14,09,02,18.70
2019,08,14,09,03,18.70
2019,08,14,09,04,18.70
2019,08,14,09,05,18.70
2019,08,14,09,06,18.70
2019,08,14,09,07,18.60
2019,08,14,09,08,18.60
2019,08,14,09,09,18.60
2019,08,14,09,10,18.50
2019,08,14,09,11,18.60
2019,08,14,09,12,18.60
2019,08,14,09,13,18.60
2019,08,14,09,14,18.60
2019,08,14,09,15,18.60
2019,08,14,09,16,18.40
2019,08,14,09,17,18.10
2019,08,14,09,18,18.00
2019,08,14,09,19,17.90
2019,08,14,09,20,17.70
2019,08,14,09,21,17.40
2019,08,14,09,22,17.30
2019,08,14,09,23,17.20
2019,08,14,09,24,16.90
2019,08,14,09,25,16.60
2019,08,14,09,26,16.40
2019,08,14,09,27,16.20
2019,08,14,09,28,16.10
2019,08,14,09,29,15.90
2019,08,14,09,30,15.80
2019,08,14,09,31,15.70
2019,08,14,09,32,15.70
2019,08,14,09,33,15.70
2019,08,14,09,34,15.70
2019,08,14,09,35,15.70
2019,08,14,09,36,15.70
2019,08,14,09,37,15.70
2019,08,14,09,38,15.80
2019,08,14,09,39,15.80
2019,08,14,09,40,15.80
2019,08,14,09,41,15.90
2019,08,14,09,42,15.90
2019,08,14,09,43,16.00
2019,08,14,09,44,15.80
2019,08,14,09,45,15.70
2019,08,14,09,46,15.60
2019,08,14,09,47,15.60
2019,08,14,09,48,15.50
2019,08,14,09,49,15.40
2019,08,14,09,50,15.20
2019,08,14,09,51,15.30
2019,08,14,09,52,15.30
2019,08,14,09,53,15.30
2019,08,14,09,54,15.20
2019,08,14,09,55,15.20
2019,08,14,09,56,15.20
2019,08,14,09,57,15.20
2019,08,14,09,58,15.10
2019,08,14,09,59,15.00
2019,08,14,10,00,14.90
2019,08,14,10,01,14.90
2019,08,14,10,02,14.90
2019,08,14,10,03,14.80
2019,08,14,10,04,14.80
2019,08,14,10,05,14.80
2019,08,14,10,06,14.70
2019,08,14,10,07,14.70
2019,08,14,10,08,14.70
2019,08,14,10,09,14.70
2019,08,14,10,10,14.70
2019,08,14,10,11,14.70
2019,08,14,10,12,14.70
2019,08,14,10,13,14.80
2019,08,14,10,14,14.80
2019,08,14,10,15,14.80
2019,08,14,10,16,14.80
2019,08,14,10,17,14.80
2019,08,14,10,18,14.70
2019,08,14,10,19,14.50
2019,08,14,10,20,14.40
2019,08,14,10,21,14.30
2019,08,14,10,22,14.40
2019,08,14,10,23,14.50
2019,08,14,10,24,14.60
2019,08,14,10,25,14.80
2019,08,14,10,26,14.80
2019,08,14,10,27,14.90
2019,08,14,10,28,15.00
2019,08,14,10,29,15.10
2019,08,14,10,30,15.10
2019,08,14,10,31,15.20
2019,08,14,10,32,15.30
2019,08,14,10,33,15.40
2019,08,14,10,34,15.50
2019,08,14,10,35,15.60
2019,08,14,10,36,15.60
2019,08,14,10,37,15.60
2019,08,14,10,38,15.70
2019,08,14,10,39,15.70
2019,08,14,10,40,15.70
2019,08,14,10,41,15.70
2019,08,14,10,42,15.70
2019,08,14,10,43,15.80
2019,08,14,10,44,15.80
2019,08,14,10,45,15.70
2019,08,14,10,46,15.70
2019,08,14,10,47,15.70
2019,08,14,10,48,15.70
2019,08,14,10,49,15.80
2019,08,14,10,50,15.80
2019,08,14,10,51,15.80
2019,08,14,10,52,15.80
2019,08,14,10,53,15.90
2019,08,14,10,54,16.00
2019,08,14,10,55,16.10
2019,08,14,10,56,16.00
2019,08,14,10,57,15.90
2019,08,14,10,58,15.80
2019,08,14,10,59,15.80
2019,08,14,11,00,15.70
2019,08,14,11,01,15.70
2019,08,14,11,02,15.70
2019,08,14,11,03,15.80
2019,08,14,11,04,15.80
2019,08,14,11,05,15.80
2019,08,14,11,06,15.80
2019,08,14,11,07,15.80
2019,08,14,11,08,15.80
2019,08,14,11,09,15.80
2019,08,14,11,10,15.80
2019,08,14,11,11,15.80
2019,08,14,11,12,15.90
2019,08,14,11,13,16.00
2019,08,14,11,14,15.90
2019,08,14,11,15,15.90
2019,08,14,11,16,15.90
2019,08,14,11,17,15.70
2019,08,14,11,18,15.60
2019,08,14,11,19,15.50
2019,08,14,11,20,15.40
2019,08,14,11,21,15.40
2019,08,14,11,22,15.60
2019,08,14,11,23,15.70
2019,08,14,11,24,15.80
2019,08,14,11,25,15.80
2019,08,14,11,26,15.80
2019,08,14,11,27,15.90
2019,08,14,11,28,16.00
2019,08,14,11,29,16.00
2019,08,14,11,30,16.10
2019,08,14,11,31,16.10
2019,08,14,11,32,16.10
2019,08,14,11,33,16.10
2019,08,14,11,34,16.10
2019,08,14,11,35,16.10
2019,08,14,11,36,15.80
2019,08,14,11,37,15.10
2019,08,14,11,38,14.80
2019,08,14,11,39,14.60
2019,08,14,11,40,14.50
2019,08,14,11,41,14.30
2019,08,14,11,42,14.10
2019,08,14,11,43,14.00
2019,08,14,11,44,13.90
2019,08,14,11,45,13.80
2019,08,14,11,46,13.80
2019,08,14,11,47,13.80
2019,08,14,11,48,13.70
2019,08,14,11,49,13.70
2019,08,14,11,50,13.90
2019,08,14,11,51,13.90
2019,08,14,11,52,13.80
2019,08,14,11,53,13.70
2019,08,14,11,54,13.70
2019,08,14,11,55,13.70
2019,08,14,11,56,13.70
2019,08,14,11,57,13.70
2019,08,14,11,58,13.70
2019,08,14,11,59,13.60
2019,08,14,12,00,13.70
2019,08,14,12,01,13.80
2019,08,14,12,02,13.90
2019,08,14,12,03,13.90
2019,08,14,12,04,13.90
2019,08,14,12,05,13.80
2019,08,14,12,06,13.70
2019,08,14,12,07,13.70
2019,08,14,12,08,13.70
2019,08,14,12,09,13.70
2019,08,14,12,10,13.70
2019,08,14,12,11,13.80
2019,08,14,12,12,13.80
2019,08,14,12,13,14.00
2019,08,14,12,14,14.30
2019,08,14,12,15,14.30
2019,08,14,12,16,14.10
2019,08,14,12,17,14.00
2019,08,14,12,18,13.80
2019,08,14,12,19,13.80
2019,08,14,12,20,13.70
2019,08,14,12,21,13.70
2019,08,14,12,22,13.70
2019,08,14,12,23,13.60
2019,08,14,12,24,13.60
2019,08,14,12,25,13.60
2019,08,14,12,26,13.60
2019,08,14,12,27,13.50
2019,08,14,12,28,13.50
2019,08,14,12,29,13.50
2019,08,14,12,30,13.50
2019,08,14,12,31,13.50
2019,08,14,12,32,13.50
2019,08,14,12,33,13.50
2019,08,14,12,34,13.60
2019,08,14,12,35,13.80
2019,08,14,12,36,13.90
2019,08,14,12,37,13.90
2019,08,14,12,38,13.90
2019,08,14,12,39,13.90
2019,08,14,12,40,13.90
2019,08,14,12,41,13.90
2019,08,14,12,42,13.90
2019,08,14,12,43,13.90
2019,08,14,12,44,14.00
2019,08,14,12,45,14.10
2019,08,14,12,46,14.10
2019,08,14,12,47,14.00
2019,08,14,12,48,13.90
2019,08,14,12,49,13.90
2019,08,14,12,50,14.00
2019,08,14,12,51,14.10
2019,08,14,12,52,14.10
2019,08,14,12,53,14.10
2019,08,14,12,54,14.10
2019,08,14,12,55,14.10
2019,08,14,12,56,14.10
2019,08,14,12,57,14.10
2019,08,14,12,58,14.10
2019,08,14,12,59,14.10
2019,08,14,13,00,14.10
2019,08,14,13,01,14.10
2019,08,14,13,02,14.10
2019,08,14,13,03,14.20
2019,08,14,13,04,14.20
2019,08,14,13,05,14.20
2019,08,14,13,06,14.20
2019,08,14,13,07,14.20
2019,08,14,13,08,14.20
2019,08,14,13,09,14.10
2019,08,14,13,10,14.10
2019,08,14,13,11,14.10
2019,08,14,13,12,14.20
2019,08,14,13,13,14.30
2019,08,14,13,14,14.70
2019,08,14,13,15,15.30
2019,08,14,13,16,15.60
2019,08,14,13,17,16.00
2019,08,14,13,18,16.40
2019,08,14,13,19,16.80
2019,08,14,13,20,17.30
2019,08,14,13,21,17.60
2019,08,14,13,22,17.90
2019,08,14,13,23,18.10
2019,08,14,13,24,18.10
2019,08,14,13,25,17.90
2019,08,14,13,26,17.60
2019,08,14,13,27,17.30
2019,08,14,13,28,17.60
2019,08,14,13,29,17.90
2019,08,14,13,30,18.10
2019,08,14,13,31,17.80
2019,08,14,13,32,17.30
2019,08,14,13,33,16.80
2019,08,14,13,34,16.50
2019,08,14,13,35,16.80
2019,08,14,13,36,17.30
2019,08,14,13,37,17.90
2019,08,14,13,38,18.20
2019,08,14,13,39,18.40
2019,08,14,13,40,18.50
2019,08,14,13,41,18.60
2019,08,14,13,42,18.60
2019,08,14,13,43,18.50
2019,08,14,13,44,18.40
2019,08,14,13,45,18.30
2019,08,14,13,46,18.30
2019,08,14,13,47,18.20
2019,08,14,13,48,18.00
2019,08,14,13,49,17.70
2019,08,14,13,50,17.40
2019,08,14,13,51,17.20
2019,08,14,13,52,17.30
2019,08,14,13,53,17.20
2019,08,14,13,54,17.00
2019,08,14,13,55,16.90
2019,08,14,13,56,16.70
2019,08,14,13,57,16.30
2019,08,14,13,58,16.10
2019,08,14,13,59,16.50
2019,08,14,14,00,17.20
2019,08,14,14,01,17.80
2019,08,14,14,02,18.30
2019,08,14,14,03,18.70
2019,08,14,14,04,19.00
2019,08,14,14,05,19.20
2019,08,14,14,06,19.40
2019,08,14,14,07,19.30
2019,08,14,14,08,19.30
2019,08,14,14,09,19.30
2019,08,14,14,10,19.10
2019,08,14,14,11,18.90
2019,08,14,14,12,18.70
2019,08,14,14,13,18.50
2019,08,14,14,14,18.10
2019,08,14,14,15,17.00
2019,08,14,14,16,16.00
2019,08,14,14,17,15.30
2019,08,14,14,18,15.00
2019,08,14,14,19,14.90
2019,08,14,14,20,15.10
2019,08,14,14,21,15.40
2019,08,14,14,22,15.80
2019,08,14,14,23,15.90
2019,08,14,14,24,15.60
2019,08,14,14,25,15.20
2019,08,14,14,26,15.00
2019,08,14,14,27,15.10
2019,08,14,14,28,15.50
2019,08,14,14,29,16.40
2019,08,14,14,30,17.30
2019,08,14,14,31,17.80
2019,08,14,14,32,17.90
2019,08,14,14,33,17.80
2019,08,14,14,34,17.10
2019,08,14,14,35,16.40
2019,08,14,14,36,15.90
2019,08,14,14,37,15.60
2019,08,14,14,38,15.50
2019,08,14,14,39,15.60
2019,08,14,14,40,15.60
2019,08,14,14,41,15.60
2019,08,14,14,42,15.30
2019,08,14,14,43,15.00
2019,08,14,14,44,14.70
2019,08,14,14,45,14.40
2019,08,14,14,46,14.30
2019,08,14,14,47,14.20
2019,08,14,14,48,14.30
2019,08,14,14,49,14.40
2019,08,14,14,50,14.60
2019,08,14,14,51,14.70
2019,08,14,14,52,14.90
2019,08,14,14,53,15.00
2019,08,14,14,54,15.20
2019,08,14,14,55,15.40
2019,08,14,14,56,15.70
2019,08,14,14,57,15.90
2019,08,14,14,58,15.90
2019,08,14,14,59,15.90
2019,08,14,15,00,15.80
2019,08,14,15,01,15.80
2019,08,14,15,02,15.90
2019,08,14,15,03,16.10
2019,08,14,15,04,16.30
2019,08,14,15,05,16.50
2019,08,14,15,06,16.50
2019,08,14,15,07,16.70
2019,08,14,15,08,16.90
2019,08,14,15,09,17.40
2019,08,14,15,10,18.10
2019,08,14,15,11,18.50
2019,08,14,15,12,18.80
2019,08,14,15,13,19.00
2019,08,14,15,14,19.10
2019,08,14,15,15,19.30
2019,08,14,15,16,19.40
2019,08,14,15,17,19.50
2019,08,14,15,18,19.60
2019,08,14,15,19,19.50
2019,08,14,15,20,19.30
2019,08,14,15,21,19.20
2019,08,14,15,22,19.30
2019,08,14,15,23,19.30
2019,08,14,15,24,19.20
2019,08,14,15,25,19.30
2019,08,14,15,26,19.40
2019,08,14,15,27,19.50
2019,08,14,15,28,18.90
2019,08,14,15,29,18.00
2019,08,14,15,30,17.00
2019,08,14,15,31,15.80
2019,08,14,15,32,14.80
2019,08,14,15,33,14.20
2019,08,14,15,34,13.70
2019,08,14,15,35,13.50
2019,08,14,15,36,13.30
2019,08,14,15,37,13.20
2019,08,14,15,38,13.20
2019,08,14,15,39,13.20
2019,08,14,15,40,13.10
2019,08,14,15,41,13.10
2019,08,14,15,42,13.10
2019,08,14,15,43,13.10
2019,08,14,15,44,13.10
2019,08,14,15,45,13.20
2019,08,14,15,46,13.40
2019,08,14,15,47,13.60
2019,08,14,15,48,13.60
2019,08,14,15,49,13.60
2019,08,14,15,50,13.60
2019,08,14,15,51,14.10
2019,08,14,15,52,16.50
2019,08,14,15,53,17.00
2019,08,14,15,54,16.60
2019,08,14,15,55,16.00
2019,08,14,15,56,15.50
2019,08,14,15,57,15.10
2019,08,14,15,58,14.80
2019,08,14,15,59,14.40
2019,08,14,16,00,14.20
2019,08,14,16,01,14.00
2019,08,14,16,02,13.90
2019,08,14,16,03,13.80
2019,08,14,16,04,13.70
2019,08,14,16,05,13.60
2019,08,14,16,06,13.50
2019,08,14,16,07,13.40
2019,08,14,16,08,13.30
2019,08,14,16,09,13.20
2019,08,14,16,10,13.20
2019,08,14,16,11,13.20
2019,08,14,16,12,13.20
2019,08,14,16,13,13.20
2019,08,14,16,14,13.20
2019,08,14,16,15,13.20
2019,08,14,16,16,13.20
2019,08,14,16,17,13.20
2019,08,14,16,18,13.20
2019,08,14,16,19,13.20
2019,08,14,16,20,13.30
2019,08,14,16,21,13.30
2019,08,14,16,22,13.40
2019,08,14,16,23,13.50
2019,08,14,16,24,13.60
2019,08,14,16,25,13.50
2019,08,14,16,26,13.50
2019,08,14,16,27,13.50
2019,08,14,16,28,13.40
2019,08,14,16,29,13.30
2019,08,14,16,30,13.30
2019,08,14,16,31,13.20
2019,08,14,16,32,13.30
2019,08,14,16,33,13.30
2019,08,14,16,34,13.50
2019,08,14,16,35,13.60
2019,08,14,16,36,13.60
2019,08,14,16,37,13.60
2019,08,14,16,38,13.50
2019,08,14,16,39,13.40
2019,08,14,16,40,13.30
2019,08,14,16,41,13.30
2019,08,14,16,42,13.30
2019,08,14,16,43,13.30
2019,08,14,16,44,13.30
2019,08,14,16,45,13.50
2019,08,14,16,46,13.60
2019,08,14,16,47,13.60
2019,08,14,16,48,13.50
2019,08,14,16,49,13.50
2019,08,14,16,50,13.50
2019,08,14,16,51,13.50
2019,08,14,16,52,13.50
2019,08,14,16,53,13.40
2019,08,14,16,54,13.40
2019,08,14,16,55,13.40
2019,08,14,16,56,13.60
2019,08,14,16,57,13.80
2019,08,14,16,58,14.20
2019,08,14,16,59,14.60
2019,08,14,17,00,15.00
2019,08,14,17,01,15.10
2019,08,14,17,02,15.10
2019,08,14,17,03,15.20
2019,08,14,17,04,15.00
2019,08,14,17,05,14.60
2019,08,14,17,06,14.40
2019,08,14,17,07,14.30
2019,08,14,17,08,14.20
2019,08,14,17,09,14.00
2019,08,14,17,10,13.90
2019,08,14,17,11,13.70
2019,08,14,17,12,13.70
2019,08,14,17,13,13.60
2019,08,14,17,14,13.60
2019,08,14,17,15,13.60
2019,08,14,17,16,13.60
2019,08,14,17,17,13.50
2019,08,14,17,18,13.50
2019,08,14,17,19,13.60